Regional Weather Roundup
Issued by NWS

Home | Current Version | Previous Version | Text Only | Print | Product List | Glossary On
Versions: 1 2 3 4 5 6 7 8 9 10 11 12 13 14 15 16 17 18 19 20 21 22 23 24 25 26 27 28 29 30 31 32 33 34 35 36 37 38 39 40 41 42 43 44 45 46 47 48 49 50
021
ASUS43 KOAX 110010
RWRNE

WEATHER ROUNDUP FOR NEBRASKA
NATIONAL WEATHER SERVICE OMAHA NE
600 PM CST SAT DEC 10 2016

NOTES: SATELLITE DATA IS BEING USED TO AUGMENT CLOUD COVER ABOVE
       12000 FEET.
       "FAIR" INDICATES FEW OR NO CLOUDS BELOW 12,000 FEET WITH NO
       SIGNIFICANT WEATHER AND/OR OBSTRUCTIONS TO VISIBILITY.

  * THESE STATIONS DO NOT REPORT WEATHER SUCH AS RAIN...SNOW OR FOG.

NEZ001>004-019>022-054>056-110100-
NEBRASKA PANHANDLE

CITY           SKY/WX    TMP DP  RH WIND       PRES   REMARKS
SCOTTSBLUFF    CLOUDY    29  21  72 E5        29.69S WCI  24
6HR MIN TEMP:  21; 6HR MAX TEMP:  30;

ALLIANCE       CLOUDY    28  22  78 S9        29.67F WCI  19
6HR MIN TEMP:  22; 6HR MAX TEMP:  31;

CHADRON        CLOUDY    12   6  77 CALM      29.73S
6HR MIN TEMP:  11; 6HR MAX TEMP:  16;

KIMBALL        CLOUDY    41  32  72 SW6       29.71S
SIDNEY         CLOUDY    30  23  75 W7        29.72R WCI  23
6HR MIN TEMP:  29; 6HR MAX TEMP:  34;

$$

NEZ057>060-069>072-079>082-110100-
SOUTHWEST NEBRASKA

CITY           SKY/WX    TMP DP  RH WIND       PRES   REMARKS
NORTH PLATTE   CLOUDY    28  21  75 S5        29.79F WCI  23
6HR MIN TEMP:  25; 6HR MAX TEMP:  31;

IMPERIAL       CLOUDY    27  22  81 SE6       29.76F WCI  20
6HR MIN TEMP:  24; 6HR MAX TEMP:  30;

LEXINGTON      CLOUDY    31  23  71 SE7       29.83F WCI  25
MCCOOK         CLOUDY    31  24  75 SE6       29.80F WCI  25
6HR MIN TEMP:  25; 6HR MAX TEMP:  34;

OGALLALA       CLOUDY    29  24  82 SE3       29.77R
$$

NEZ005>010-023>029-035>040-094-110100-
NORTH CENTRAL NEBRASKA

CITY           SKY/WX    TMP DP  RH WIND       PRES   REMARKS
VALENTINE      CLOUDY    14  11  87 NE6       29.78F WCI   5
6HR MIN TEMP:  12; 6HR MAX TEMP:  20;

AINSWORTH      CLOUDY    24  20  85 SE6       29.79F WCI  17
BROKEN BOW     CLOUDY    30  21  69 S10       29.80F WCI  21
6HR MIN TEMP:  26; 6HR MAX TEMP:  31;

O`NEILL        CLOUDY    28  21  75 SE8       29.88F WCI  20
ORD            CLOUDY    30  19  63 S7        29.85F WCI  23
6HR MIN TEMP:  26; 6HR MAX TEMP:  31;

THEDFORD       CLOUDY    29  24  79 S12       29.77F WCI  20
$$

NEZ041-046>049-061>064-073>077-083>087-110100-
SOUTH CENTRAL NEBRASKA

CITY           SKY/WX    TMP DP  RH WIND       PRES   REMARKS
GRAND ISLAND   CLOUDY    31  21  66 SE9       29.90F WCI  23
6HR MIN TEMP:  28; 6HR MAX TEMP:  32;

AURORA         CLOUDY    31  19  63 SE9       29.91F WCI  22
HASTINGS       CLOUDY    32  20  61 S10       29.89F WCI  24
6HR MIN TEMP:  29; 6HR MAX TEMP:  33;

HEBRON         CLOUDY    33  22  63 SE12      29.94F WCI  24
HOLDREGE       CLOUDY    32  23  70 S8        29.85F WCI  25
KEARNEY *      CLOUDY    32  19  59 S7        29.88S WCI  26
YORK           CLOUDY    32  18  55 SE9       29.94F WCI  24
$$

NEZ011>018-030>034-042>045-110100-
NORTHEAST NEBRASKA

CITY           SKY/WX    TMP DP  RH WIND       PRES   REMARKS
NORFOLK        CLOUDY    26  18  71 SE13      29.94F WCI  15
6HR MIN TEMP:  23; 6HR MAX TEMP:  27;

ALBION         CLOUDY    29  19  65 SE10      29.90F WCI  20
BLAIR          CLOUDY    30  19  64 SE12      30.01F WCI  20
FREMONT        CLOUDY    30  19  62 SE12      30.01F WCI  20
TEKAMAH        CLOUDY    28  19  69 SE14      30.03F WCI  17
6HR MIN TEMP:  24; 6HR MAX TEMP:  28;

WAYNE          CLOUDY    25  21  85 SE13      29.98S WCI  13
$$

NEZ050>053-065>068-078-088>093-110100-
SOUTHEAST NEBRASKA

CITY           SKY/WX    TMP DP  RH WIND       PRES   REMARKS
LINCOLN        CLOUDY    33  17  51 SE13      29.99F WCI  24
6HR MIN TEMP:  31; 6HR MAX TEMP:  33;

OMAHA EPPLEY   CLOUDY    31  16  54 SE15      30.04F WCI  20
6HR MIN TEMP:  28; 6HR MAX TEMP:  31;

BEATRICE       CLOUDY    34  21  60 SE12G17   29.98F WCI  25
FALLS CITY     CLOUDY    34  20  56 SE9       30.07F WCI  27
6HR MIN TEMP:  33; 6HR MAX TEMP:  34;

NEBRASKA CITY  CLOUDY    32  14  48 S14       30.02F WCI  22
PLATTSMOUTH    CLOUDY    31  14  48 SE14      30.02F WCI  21
$$

NEZ044-045-051>053-067-110100-
OMAHA AREA

CITY           SKY/WX    TMP DP  RH WIND       PRES   REMARKS
OMAHA EPPLEY   CLOUDY    31  16  54 SE15      30.04F WCI  20
6HR MIN TEMP:  28; 6HR MAX TEMP:  31;

BLAIR          CLOUDY    30  19  64 SE12      30.01F WCI  20
FREMONT        CLOUDY    30  19  62 SE12      30.01F WCI  20
MILLARD        CLOUDY    33  18  54 SE10      30.02F WCI  25
OFFUTT AFB     CLOUDY    31  17  54 SE17      30.02F WCI  20
PLATTSMOUTH    CLOUDY    31  14  48 SE14      30.02F WCI  21
WAHOO          CLOUDY    31  17  54 SE17G26   30.00F WCI  20
$$




USA.gov is the U.S. government's official web portal to all federal, state and local government web resources and services.